Regional Weather Roundup
Issued by NWS Wakefield, VA

Home | Current Version | Previous Version | Graphics & Text | Print | Product List | Glossary On
Versions: 1 2 3 4 5 6 7 8 9 10 11 12 13 14 15 16 17 18 19 20 21 22 23 24 25 26 27 28 29 30 31 32 33 34 35 36 37 38 39 40 41 42 43 44 45 46 47 48 49 50
000
ASUS41 KAKQ 281115
RWRAKQ

REGIONAL WEATHER ROUNDUP
NATIONAL WEATHER SERVICE WAKEFIELD VA
700 AM EDT TUE JUL 28 2015

Note: "fair" indicates few or no clouds below 12,000 feet with no
significant weather and/or obstructions to visibility. * = Denotes
station may not report precipitation (e.g., rain,snow,etc.),
thunder or fog.

VAZ042-051-052>054-056-281200-
NORTHERN VIRGINIA

CITY           SKY/WX    TMP DP  RH WIND       PRES   REMARKS
WASH NATIONAL  PTCLDY    78  72  81 CALM      30.01R
DULLES         CLEAR     71  69  93 CALM      30.02R
FORT BELVOIR   CLEAR     69  68  96 CALM      30.01R
QUANTICO       CLEAR     73  69  87 CALM      30.01R
FREDERICKSBRG* CLEAR     71  71 100 CALM      30.01R
STAFFORD*      CLEAR     66  65  96 CALM      30.05R
WARRENTON      CLOUDY    71  71  99 CALM      30.01R FOG
CULPEPER*      FOG       69  69 100 CALM      30.03R VSB<1/4
MANASSAS*      CLEAR     72  72 100 CALM      30.00S
LEESBURG*      CLEAR     72  72 100 N7        30.03R FOG
WINCHESTER     FOG       72  72 100 CALM      30.03S VSB 1/2
FRONT ROYAL*   CLOUDY    66  66 100 CALM      30.03R VSB 3/4
LURAY*         FOG       70  70 100 CALM      30.05R VSB<1/4
$$

VAZ048-049-060>072-079>083-281200-
CENTRAL AND SOUTH CENTRAL VIRGINIA

CITY           SKY/WX    TMP DP  RH WIND       PRES   REMARKS
RICHMOND       PTCLDY    73  71  93 S3        30.01R
CHESTERFIELD*  FAIR      72  61  68 S3        30.02R
PETERSBURG*    CLEAR     71  71 100 CALM      30.02R FOG
HANOVER        CLEAR     69  69 100 CALM      30.03R FOG
TAPPAHANNOCK*  CLEAR     71  67  90 CALM      30.02R
QUINTON*       FAIR      72  71  99 CALM      30.01R
CHARLOTTSVILLE FOG       71  69  93 CALM      30.02R VSB 1/8
GORDONSVILLE*  FAIR      68  66  94 CALM      30.01S FOG
ORANGE*        CLEAR     70  70 100 CALM      30.03R
LOUISA*        MOCLDY    68  66  94 CALM      30.01R FOG
BUMPASS*       FAIR      68  68  99 CALM      30.02R
FARMVILLE*     FOG       73  73 100 CALM      30.01R VSB<1/4
CREWE*         FAIR     N/A N/A N/A CALM      30.01R
FORT PICKETT*  FAIR      70  69  98 S8        30.02R
CHASE CITY*    FAIR      74  74 100 CALM      30.02R
CLARKSVILLE*   FAIR      72  72 100 CALM      30.01R
SOUTH HILL*    MOCLDY    71  70  97 S3        30.08R
LAWRENCEVILLE* FAIR      72  70  94 CALM      30.02R
EMPORIA*       CLEAR     70  70 100 CALM      30.03R
$$

VAZ088>098-281200-
SOUTHEAST VIRGINIA

CITY           SKY/WX    TMP DP  RH WIND       PRES   REMARKS
NORFOLK        MOCLDY    76  71  85 S6        30.02R
VIRGINIA BEACH MOCLDY    75  70  84 CALM      30.02R
NORFOLK NAVAL  MOCLDY    75  71  87 S3        30.03R
WEST POINT*    PTCLDY    75  71  87 CALM      30.03R
SALUDA*        FAIR      72  71  98 CALM      30.00R
NEWPORT NEWS   CLOUDY    77  71  82 SW5       30.02R
LANGLEY AFB    PTCLDY    75  73  91 W1        30.02R
FORT EUSTIS    CLOUDY    75  75 100 SE3       30.00R
WILLIAMSBURG*  CLEAR     79  75  89 S3        30.03R
HR EXEC AP*    FAIR      70  68  94 CALM      30.04S
FRANKLIN*      MOCLDY    72  71  96 CALM      30.03R
WAKEFIELD      PTCLDY    73  70  90 CALM      30.02R
$$

VAZ020-022-025-037-045-281200-
WEST CENTRAL AND SOUTHWEST VIRGINIA

CITY           SKY/WX    TMP DP  RH WIND       PRES   REMARKS
STAUNTON*      FOG       70  68  95 CALM      30.07S VSB<1/4
WAYNESBORO*    CLOUDY    68  68 100 MISG      30.07R VSB 1/4
HOT SPRINGS VA PTCLDY    68  68 100 SW3       30.15S
LYNCHBURG      PTCLDY    71  71 100 CALM      30.05R FOG
DANVILLE       CLEAR     73  72  96 CALM      30.03R FOG
SOUTH BOSTON*  PTSUNNY   71  70  95 CALM      30.02R
MARTINSVILLE   PTCLDY    70  70 100 CALM      30.06S FOG
ROANOKE        CLOUDY    73  69  87 E3        30.06R
BLACKSBURG     FOG       69  69 100 SE3       30.12S VSB 1/2
DUBLIN*        FOG       68  68 100 CALM      30.10S VSB<1/4
MARION*        FOG       66  65  95 CALM      30.12S VSB 1/4
HILLSVILLE*    PTCLDY    67  66  99 CALM      30.11R FOG
RICHLANDS*     FAIR      67  67 100 CALM      30.11S FOG
WISE*          FOG       70  70 100 CALM      30.12R VSB<1/4
ABINGDON*      MOCLDY    72  69  92 CALM      30.09R
$$

MDZ021>025-VAZ099-100-281200-
SOUTHERN MARYLAND AND THE DELMARVA PENINSULA

CITY           SKY/WX    TMP DP  RH WIND       PRES   REMARKS
PATUXENT RIVER PTCLDY    73  71  93 CALM      30.01R
BAY BRIDGE APT   N/A     73  72  94 CALM      30.01R
LEONARDTOWN    CLEAR     70  68  94 CALM      30.02R
DOVER          SUNNY     73  73 100 SW2       30.00R
GEORGETOWN     SUNNY     71  70  96 CALM      30.02R
EASTON         CLEAR     73  73 100 CALM      30.05R
CAMBRIDGE      CLEAR     72  68  88 CALM      30.01R
SALISBURY      SUNNY     70  69  97 CALM      30.01R FOG
OCEAN CITY     PTSUNNY   74  72  93 CALM      30.01R
WALLOPS ISLAND CLOUDY    75  74  96 CALM      30.02R
ACCOMACK*      CLOUDY    72  72 100 CALM      30.02R
$$

NCZ012>017-030>032-281200-
NORTH CENTRAL AND EASTERN NORTH CAROLINA

CITY           SKY/WX    TMP DP  RH WIND       PRES   REMARKS
ROANOKE RAPIDS FAIR      68  66  94 CALM      30.02R FOG
RALEIGH        PTCLDY    74  71  91 CALM      30.02R
ELIZABETH CITY CLEAR     71  70  96 CALM      30.03R
AHOSKIE*       CLEAR     68  67  97 CALM      30.02S
EDENTON*       CLEAR     71  70  95 CALM      30.02R
CURRITUCK*     CLEAR     72  69  90 CALM      30.03R
KILL DEVIL HLS CLEAR     74  69  84 CALM      30.01S
MANTEO         CLEAR     71  69  94 CALM      30.03R
CAPE HATTERAS  CLEAR     76  70  82 NE3       30.01R
TARBORO*         N/A     70  69  96 CALM      30.03R
GOLDSBORO      CLEAR     71  71  98 E2        29.99R
WASHINGTON     CLEAR     69  69  97 CALM      30.02R
GREENVILLE     CLEAR     70  70 100 CALM      30.03S
NEW BERN       CLEAR     71  69  93 CALM      30.01S FOG
WILMINGTON     CLEAR     72  70  93 NE5       29.98R
$$

VAZ048-281200-
ELSEWHERE

CITY           SKY/WX    TMP DP  RH WIND       PRES   REMARKS
HARRISBURG PA  CLOUDY    73  71  93 CALM      30.02S FOG
BALTIMORE      MOCLDY    73  72  96 CALM      30.01R FOG
ANNAPOLIS      CLEAR     76  71  85 CALM      30.00R
ANDREWS AFB    CLEAR     70  69  97 CALM      30.01R
PHILADELPHIA   PTSUNNY   76  72  87 W5        30.02R
HENDERSON NC   MOCLDY    73  69  90 CALM      30.03R
GREENSBORO     MOCLDY    71  71 100 CALM      30.02R
ROCKY MOUNT    CLEAR     70  69  97 CALM      30.02R FOG
$$

VAZ100-281200-
MARINE

STATION/POSITION TIME  TEMP    WIND        PRES    WAVE   SWELL
                       AIR SEA DIR/SP/G            HT/PER HT/PER
                 (UTC) (F)     (DEG/KT/KT) (MB)    (FT/S) (FT/S)
BRANDYWINE LGT   1000   74 76  260/  5/  6 1016.2S
CAPE MAY NJ      1000   73 79   90/  2/  2 1015.8R
LEWES DE         1000   74 72  200/  3/  4 1015.8R
15NM E FENWICK I 1050   78 77  200/  8/  8 1016.4R   2/10   2/10
OCEAN-CITY-INLET 1000   75 75  230/  3/  4 1015.2R
WACHAPREAGUE VA  1000   75 81  250/  2/  3 1016.1S
THOMAS POINT MD  1100   77     260/  3     1016.5
GOOSES REEF MD   1100   79 80  210/  4/  4 1017.0R
COVE POINT MD    1000   75     220/  2/  3 1016.3F
SOLOMONS ISLAND  1000      82                N/A
BISHOPS HEAD MD  1000   79 79  260/  7/  9 1014.9S
POTOMAC MD       1100   78 82  240/  4/  6 1015.0R   1
CAMBRIDGE MD     1000   75 83  190/  2/  2 1014.9S
LEWISETTA VA     1000   75 82  240/  2/  3 1015.3R
RAPPAHANNOCK LGT 1000          230/  8/  9 1016.4S
STINGRAY PT      1100   79 82  210/  8/ 10 1016.3R   1/ 3
YORK RVR RNG VA  1000   79     240/  7/  9 1015.4R
YORKTOWN VA      1000   76 83  200/  4/  4 1015.7R
JAMESTOWN VA     1100   76 83  180/  4/  6   N/A
DOMINION TERM VA 1000   77     190/  5/  6 1015.8S
KIPTOPEKE VA     1000      86  220/  6/  8   N/A
CHES BAY BRIDGE  1000   78 81  220/  5/  6 1015.7R
CAPE HENRY VA    1000   76     210/  4/  5   N/A
CHESAPEAKE LGHT  1000   79     210/  5/  5 1016.9R
WILLOUBY STN VA  1000   77     240/  4/  5 1017.0R
CAPE HENRY BUOY  1028      80                N/A     2/12   2/12
1ST LANDING BUOY 1100      80              1016.2R   1/ 4
CAPE CHARLES BUO 1026      79                N/A     2/11   2/11
OFFSHORE WE BUOY 1011      80                N/A     2/11   2/11
64NM E OF VA BCH 1050   80 80  140/  2/  4 1016.5R   2/11   2/11
DUCK PIER NC     1000   77 77  160/  5/  5 1015.4R
44100 DUCK FRF   1024      80                N/A     2/11   2/11
44056 DUCK FRF   1011      79                N/A     2/10   2/11
OREGON INLET NC  1000   76 81  100/  3/  4 1016.2R
HATTERAS NC      1000   76 82   70/  3/  4 1015.5R
CAPE LOOKOUT NC  1100   80      70/ 12/ 13 1015.3R
$$



USA.gov is the U.S. government's official web portal to all federal, state and local government web resources and services.